Lihue, HI

3:46 AM HST on August 19, 2017 (GMT -1000)
Lihue

Weather History for PHLI - June, 2013

Change the Weather History Date:

Saturday, June 15, 2013

  Actual Average Record
Temperature  
Mean Temperature 78 °F 78 °F  
Max Temperature 83 °F 83 °F 89 °F (1969)
Min Temperature 73 °F 73 °F 68 °F (1971)
Degree Days  
Heating Degree Days 0 0  
Month to date heating degree days 0 0  
Since 1 June heating degree days 0 0  
Since 1 July heating degree days 0 0  
Cooling Degree Days 13 13  
Month to date cooling degree days 205 191  
Year to date cooling degree days 1287 1430  
Since 1 June cooling degree days 205 191  
Growing Degree Days 28 (Base 50)    
Moisture  
Dew Point 68 °F    
Average Humidity 73    
Maximum Humidity 87    
Minimum Humidity 58    
Precipitation  
Precipitation T in 0.06 in 1.34 in (1980)
Month to date precipitation 0.12 0.77  
Year to date precipitation 14.92 16.61  
Snow  
Snow 0.00 in - - ()
Month to date snowfall 0.0  
Since 1 June snowfall 0.0  
Since 1 July snowfall 0.0  
Snow Depth 0.00 in    
Sea Level Pressure  
Sea Level Pressure 30.03 in    
Wind  
Wind Speed 13 mph (ENE)    
Max Wind Speed 18 mph    
Max Gust Speed 24 mph    
Visibility 10 miles    
Events      
T = Trace of Precipitation, MM = Missing Value Source: NWS Daily Summary

Daily Weather History Graph

Daily Weather History Graph

Search for Another Location

Airport or City:

Trip Planner

Search our weather history database for the weather conditions in past years. The results will help you decide how hot, cold, wet, or windy it might be!

Date:

Astronomy

Jun. 15, 2013 Rise Set
Actual Time 5:53 AM HST 7:22 PM HST
Civil Twilight 5:28 AM HST 7:47 PM HST
Nautical Twilight 4:59 AM HST 8:17 PM HST
Astronomical Twilight 4:28 AM HST 8:48 PM HST
Moon 11:57 AM HST (6/15) No Moon Set
Length of Visible Light 14h 18m
Length of Day
13h 28m
Waxing Crescent, 42% of the Moon is Illuminated
Jun 15
Waxing Crescent
Jun 16
First Quarter
Jun 23
Full
Jun 29
Last Quarter
Jul 7
New

Hourly Weather History & Observations

Time (HST) Temp. Heat Index Dew Point Humidity Pressure Visibility Wind Dir Wind Speed Gust Speed Precip Events Conditions
12:53 AM 75.0 °F - 68.0 °F 79% 30.07 in 10.0 mi ENE 12.7 mph - N/A   Partly Cloudy
1:53 AM 75.0 °F - 68.0 °F 79% 30.05 in 10.0 mi NE 13.8 mph - N/A   Scattered Clouds
2:53 AM 73.9 °F - 68.0 °F 82% 30.04 in 10.0 mi ENE 12.7 mph - N/A   Scattered Clouds
3:53 AM 73.9 °F - 68.0 °F 82% 30.04 in 10.0 mi ENE 15.0 mph - N/A   Scattered Clouds
4:53 AM 73.9 °F - 68.0 °F 82% 30.03 in 10.0 mi NE 10.4 mph - N/A   Scattered Clouds
5:09 AM 73.4 °F - 68.0 °F 83% 30.04 in 10.0 mi NE 12.7 mph - N/A   Mostly Cloudy
5:36 AM 73.4 °F - 68.0 °F 83% 30.04 in 10.0 mi NE 11.5 mph - N/A   Scattered Clouds
5:53 AM 73.9 °F - 68.0 °F 82% 30.04 in 10.0 mi NE 11.5 mph - N/A   Scattered Clouds
6:00 AM 73.4 °F - 69.8 °F 88% 30.05 in 10.0 mi NE 11.5 mph - N/A   Mostly Cloudy
6:30 AM 73.4 °F - 68.0 °F 83% 30.06 in 10.0 mi NE 12.7 mph - N/A   Scattered Clouds
6:53 AM 73.9 °F - 69.1 °F 85% 30.06 in 10.0 mi NNE 10.4 mph - N/A   Mostly Cloudy
7:40 AM 77.0 °F - 66.2 °F 69% 30.07 in 10.0 mi NE 10.4 mph - N/A   Mostly Cloudy
7:53 AM 78.1 °F - 68.0 °F 71% 30.06 in 10.0 mi NE 10.4 mph - N/A   Scattered Clouds
8:53 AM 78.1 °F - 69.1 °F 74% 30.06 in 10.0 mi NE 12.7 mph - N/A   Scattered Clouds
9:43 AM 80.6 °F 83.9 °F 69.8 °F 70% 30.06 in 10.0 mi ENE 13.8 mph - N/A   Mostly Cloudy
9:53 AM 81.0 °F 83.8 °F 68.0 °F 65% 30.06 in 10.0 mi ENE 15.0 mph - N/A   Mostly Cloudy
10:53 AM 82.0 °F 84.9 °F 68.0 °F 62% 30.05 in 10.0 mi ENE 15.0 mph - N/A   Scattered Clouds
11:53 AM 81.0 °F 83.3 °F 66.9 °F 62% 30.04 in 10.0 mi ENE 16.1 mph - 0.00 in   Partly Cloudy
12:53 PM 81.0 °F 83.3 °F 66.9 °F 62% 30.03 in 10.0 mi ENE 17.3 mph - N/A   Mostly Cloudy
1:53 PM 82.9 °F 85.8 °F 68.0 °F 60% 30.01 in 10.0 mi ENE 15.0 mph - N/A   Scattered Clouds
2:53 PM 82.0 °F 84.5 °F 66.9 °F 60% 30.00 in 10.0 mi ENE 15.0 mph - N/A   Scattered Clouds
3:53 PM 81.0 °F 83.8 °F 68.0 °F 65% 29.99 in 10.0 mi NE 13.8 mph - N/A   Scattered Clouds
4:53 PM 80.1 °F 82.3 °F 66.9 °F 64% 29.98 in 10.0 mi NE 15.0 mph - N/A   Scattered Clouds
5:53 PM 78.1 °F - 66.9 °F 68% 29.98 in 10.0 mi ENE 16.1 mph - N/A   Clear
6:33 PM 77.0 °F - 68.0 °F 74% 29.99 in 10.0 mi NE 16.1 mph - N/A   Mostly Cloudy
6:53 PM 75.9 °F - 66.9 °F 74% 29.99 in 10.0 mi ENE 13.8 mph - N/A   Mostly Cloudy
7:33 PM 75.2 °F - 66.2 °F 73% 30.01 in 10.0 mi ENE 16.1 mph - N/A   Scattered Clouds
7:53 PM 75.9 °F - 68.0 °F 76% 30.01 in 10.0 mi ENE 17.3 mph - N/A   Mostly Cloudy
8:17 PM 75.2 °F - 66.2 °F 73% 30.02 in 10.0 mi ENE 18.4 mph - N/A   Partly Cloudy
8:53 PM 75.0 °F - 66.9 °F 76% 30.02 in 10.0 mi ENE 17.3 mph - N/A   Scattered Clouds
9:53 PM 75.0 °F - 66.9 °F 76% 30.04 in 10.0 mi ENE 15.0 mph - N/A   Partly Cloudy
10:33 PM 75.2 °F - 68.0 °F 78% 30.05 in 10.0 mi ENE 15.0 mph - N/A   Mostly Cloudy
10:44 PM 75.2 °F - 68.0 °F 78% 30.05 in 10.0 mi ENE 13.8 mph - N/A   Mostly Cloudy
10:53 PM 75.0 °F - 66.9 °F 76% 30.04 in 10.0 mi ENE 15.0 mph - N/A   Mostly Cloudy
11:53 PM 73.9 °F - 66.9 °F 79% 30.03 in 10.0 mi ENE 13.8 mph - N/A   Scattered Clouds